Time,TemperatureF,DewpointF,PressureIn,WindDirection,WindDirectionDegrees,WindSpeedMPH,WindSpeedGustMPH,Humidity,HourlyPrecipIn,Conditions,Clouds,dailyrainin,SoftwareType,DateUTC
2013-06-29 00:01:00,59.2,49.0,28.20,NE,50,2.7,3.5,69,0.00,RA,OVC,0.00,WeatherDisplay:10.37,2013-06-29 04:01:00,
2013-06-29 00:06:00,59.2,49.0,28.23,NE,51,0.0,3.5,69,0.00,RA,OVC,0.00,WeatherDisplay:10.37,2013-06-29 04:06:00,
2013-06-29 00:11:00,59.0,48.8,28.23,ENE,73,0.0,3.5,69,0.00,CLR,OVC,0.00,WeatherDisplay:10.37,2013-06-29 04:11:00,
2013-06-29 00:16:00,59.0,48.8,28.23,ENE,71,0.0,0.0,69,0.00,CLR,OVC,0.00,WeatherDisplay:10.37,2013-06-29 04:16:00,
2013-06-29 00:21:00,59.0,48.8,28.23,NNE,21,2.2,2.3,69,0.00,CLR,OVC,0.00,WeatherDisplay:10.37,2013-06-29 04:21:00,
2013-06-29 00:26:00,58.8,48.7,28.23,NNE,22,0.0,0.0,69,0.00,CLR,OVC,0.00,WeatherDisplay:10.37,2013-06-29 04:26:00,
2013-06-29 00:31:00,58.8,48.7,28.23,NNE,15,0.0,3.5,69,0.00,CLR,OVC,0.00,WeatherDisplay:10.37,2013-06-29 04:31:00,
2013-06-29 00:36:00,58.6,48.5,28.20,East,83,0.0,2.3,69,0.00,CLR,OVC,0.00,WeatherDisplay:10.37,2013-06-29 04:36:00,
2013-06-29 00:41:00,58.5,48.7,28.20,NNE,30,0.0,2.3,70,0.00,CLR,OVC,0.00,WeatherDisplay:10.37,2013-06-29 04:41:00,
2013-06-29 00:46:00,58.6,49.3,28.20,NE,34,3.6,5.8,71,0.00,CLR,OVC,0.00,WeatherDisplay:10.37,2013-06-29 04:46:00,
2013-06-29 00:51:00,58.5,49.1,28.20,SSE,155,2.2,3.5,71,0.00,CLR,OVC,0.00,WeatherDisplay:10.37,2013-06-29 04:51:00,
2013-06-29 00:56:00,58.5,49.8,28.20,NE,52,4.9,5.8,73,0.00,CLR,OVC,0.00,WeatherDisplay:10.37,2013-06-29 04:56:00,
2013-06-29 01:01:00,58.5,49.8,28.20,ENE,70,4.0,5.8,73,0.00,CLR,OVC,0.00,WeatherDisplay:10.37,2013-06-29 05:01:00,
2013-06-29 01:06:00,58.5,50.2,28.20,East,99,2.7,3.5,74,0.00,CLR,OVC,0.00,WeatherDisplay:10.37,2013-06-29 05:06:00,
2013-06-29 01:11:00,58.5,50.2,28.20,NNE,16,3.6,4.6,74,0.00,CLR,OVC,0.00,WeatherDisplay:10.37,2013-06-29 05:11:00,
2013-06-29 01:16:00,58.3,50.4,28.20,ENE,61,3.6,3.6,75,0.00,CLR,OVC,0.00,WeatherDisplay:10.37,2013-06-29 05:16:00,
2013-06-29 01:21:00,58.3,50.7,28.20,WNW,301,4.9,5.8,76,0.00,CLR,OVC,0.00,WeatherDisplay:10.37,2013-06-29 05:21:00,
2013-06-29 01:26:00,58.3,50.7,28.20,NE,47,2.2,3.5,76,0.00,CLR,OVC,0.00,WeatherDisplay:10.37,2013-06-29 05:26:00,
2013-06-29 01:31:00,58.3,50.7,28.20,North,8,0.0,3.5,76,0.00,CLR,OVC,0.00,WeatherDisplay:10.37,2013-06-29 05:31:00,
2013-06-29 01:36:00,58.3,50.7,28.20,NNE,18,0.0,0.0,76,0.00,CLR,OVC,0.00,WeatherDisplay:10.37,2013-06-29 05:36:00,
2013-06-29 01:41:00,58.3,50.7,28.20,SE,137,0.0,3.5,76,0.00,CLR,OVC,0.00,WeatherDisplay:10.37,2013-06-29 05:41:00,
2013-06-29 01:46:00,58.3,50.7,28.20,North,3,0.0,3.5,76,0.00,CLR,OVC,0.00,WeatherDisplay:10.37,2013-06-29 05:46:00,
2013-06-29 01:51:00,58.3,51.1,28.20,NNE,20,2.2,4.6,77,0.00,CLR,OVC,0.00,WeatherDisplay:10.37,2013-06-29 05:51:00,
2013-06-29 01:56:00,58.3,51.1,28.20,NNE,21,0.0,0.0,77,0.00,CLR,OVC,0.00,WeatherDisplay:10.37,2013-06-29 05:56:00,
2013-06-29 02:01:00,58.3,51.1,28.20,NNE,27,0.0,2.3,77,0.00,CLR,OVC,0.00,WeatherDisplay:10.37,2013-06-29 06:01:00,
2013-06-29 02:06:00,58.3,51.4,28.20,SW,226,0.0,0.0,78,0.00,CLR,OVC,0.00,WeatherDisplay:10.37,2013-06-29 06:06:00,
2013-06-29 02:11:00,58.3,51.4,28.20,SE,124,0.0,3.6,78,0.00,CLR,OVC,0.00,WeatherDisplay:10.37,2013-06-29 06:11:00,
2013-06-29 02:16:00,58.3,51.4,28.20,NNW,343,3.6,4.6,78,0.00,CLR,OVC,0.00,WeatherDisplay:10.37,2013-06-29 06:16:00,
2013-06-29 02:21:00,58.3,51.8,28.20,NE,38,0.0,2.3,79,0.00,CLR,OVC,0.00,WeatherDisplay:10.37,2013-06-29 06:21:00,
2013-06-29 02:26:00,58.3,51.8,28.20,NE,49,2.2,3.5,79,0.00,CLR,OVC,0.00,WeatherDisplay:10.37,2013-06-29 06:26:00,
2013-06-29 02:31:00,58.3,51.8,28.20,West,268,0.0,2.3,79,0.00,CLR,OVC,0.00,WeatherDisplay:10.37,2013-06-29 06:31:00,
2013-06-29 02:36:00,58.3,51.8,28.20,WSW,254,0.0,2.3,79,0.00,CLR,OVC,0.00,WeatherDisplay:10.37,2013-06-29 06:36:00,
2013-06-29 02:41:00,58.3,52.1,28.20,NNE,22,0.0,0.0,80,0.00,CLR,OVC,0.00,WeatherDisplay:10.37,2013-06-29 06:41:00,
2013-06-29 02:46:00,58.3,52.1,28.20,West,279,0.0,0.0,80,0.00,CLR,OVC,0.00,WeatherDisplay:10.37,2013-06-29 06:46:00,
2013-06-29 02:51:00,58.3,52.1,28.20,NE,42,2.2,2.3,80,0.00,CLR,OVC,0.00,WeatherDisplay:10.37,2013-06-29 06:51:00,
2013-06-29 02:56:00,58.3,52.1,28.20,NW,312,0.0,4.6,80,0.00,CLR,OVC,0.00,WeatherDisplay:10.37,2013-06-29 06:56:00,
2013-06-29 03:01:00,58.1,52.3,28.20,NE,38,0.0,3.5,81,0.00,CLR,OVC,0.00,WeatherDisplay:10.37,2013-06-29 07:01:00,
2013-06-29 03:06:00,58.1,52.0,28.20,North,9,0.0,3.5,80,0.00,CLR,OVC,0.00,WeatherDisplay:10.37,2013-06-29 07:06:00,
2013-06-29 03:11:00,57.9,52.1,28.20,NE,46,2.2,3.5,81,0.00,CLR,OVC,0.00,WeatherDisplay:10.37,2013-06-29 07:11:00,
2013-06-29 03:16:00,57.9,52.1,28.20,North,10,0.0,3.5,81,0.00,CLR,OVC,0.00,WeatherDisplay:10.37,2013-06-29 07:16:00,
2013-06-29 03:21:00,57.9,52.1,28.20,NNW,332,2.7,3.5,81,0.00,CLR,OVC,0.00,WeatherDisplay:10.37,2013-06-29 07:21:00,
2013-06-29 03:26:00,57.9,52.1,28.20,NNE,15,0.0,0.0,81,0.00,CLR,OVC,0.00,WeatherDisplay:10.37,2013-06-29 07:26:00,
2013-06-29 03:31:00,57.7,51.9,28.20,NNE,15,0.0,0.0,81,0.00,CLR,OVC,0.00,WeatherDisplay:10.37,2013-06-29 07:31:00,
2013-06-29 03:36:00,57.7,51.9,28.20,North,11,0.0,2.3,81,0.00,CLR,OVC,0.00,WeatherDisplay:10.37,2013-06-29 07:36:00,
2013-06-29 03:41:00,57.7,51.9,28.20,North,9,2.2,3.5,81,0.00,CLR,OVC,0.00,WeatherDisplay:10.37,2013-06-29 07:41:00,
2013-06-29 03:46:00,57.7,51.9,28.20,NE,56,0.0,2.7,81,0.00,CLR,OVC,0.00,WeatherDisplay:10.37,2013-06-29 07:46:00,
2013-06-29 03:51:00,57.6,51.8,28.20,NW,319,2.2,3.5,81,0.00,CLR,OVC,0.00,WeatherDisplay:10.37,2013-06-29 07:51:00,
2013-06-29 03:56:00,57.6,51.8,28.20,NNE,15,2.2,2.3,81,0.00,CLR,OVC,0.00,WeatherDisplay:10.37,2013-06-29 07:56:00,
2013-06-29 04:01:00,57.6,52.1,28.20,NE,46,0.0,3.5,82,0.00,CLR,OVC,0.00,WeatherDisplay:10.37,2013-06-29 08:01:00,
2013-06-29 04:06:00,57.7,52.3,28.23,NE,55,3.6,4.6,82,0.00,CLR,OVC,0.00,WeatherDisplay:10.37,2013-06-29 08:06:00,
2013-06-29 04:11:00,57.6,52.1,28.23,NE,55,0.0,2.3,82,0.00,CLR,OVC,0.00,WeatherDisplay:10.37,2013-06-29 08:11:00,
2013-06-29 04:16:00,57.6,52.1,28.23,SE,139,0.0,0.0,82,0.00,CLR,OVC,0.00,WeatherDisplay:10.37,2013-06-29 08:16:00,
2013-06-29 04:21:00,57.4,51.9,28.23,WNW,300,0.0,3.5,82,0.00,CLR,OVC,0.00,WeatherDisplay:10.37,2013-06-29 08:21:00,
2013-06-29 04:26:00,57.2,51.8,28.23,North,357,0.0,0.0,82,0.00,CLR,OVC,0.00,WeatherDisplay:10.37,2013-06-29 08:26:00,
2013-06-29 04:31:00,57.2,51.8,28.23,NNW,336,2.2,2.3,82,0.00,CLR,OVC,0.00,WeatherDisplay:10.37,2013-06-29 08:31:00,
2013-06-29 04:36:00,57.2,51.8,28.20,WSW,257,0.0,0.0,82,0.00,CLR,OVC,0.00,WeatherDisplay:10.37,2013-06-29 08:36:00,
2013-06-29 04:41:00,57.2,51.8,28.20,WNW,299,0.0,5.8,82,0.00,CLR,OVC,0.00,WeatherDisplay:10.37,2013-06-29 08:41:00,
2013-06-29 04:46:00,57.2,52.1,28.20,NNW,332,0.0,3.1,83,0.00,CLR,OVC,0.00,WeatherDisplay:10.37,2013-06-29 08:46:00,
2013-06-29 04:51:00,57.2,52.1,28.20,NW,305,0.0,0.0,83,0.00,CLR,OVC,0.00,WeatherDisplay:10.37,2013-06-29 08:51:00,
2013-06-29 04:56:00,57.2,52.1,28.20,NNW,346,0.0,0.0,83,0.00,CLR,OVC,0.00,WeatherDisplay:10.37,2013-06-29 08:56:00,
2013-06-29 05:01:00,57.2,52.1,28.20,East,87,0.0,0.0,83,0.00,CLR,OVC,0.00,WeatherDisplay:10.37,2013-06-29 09:01:00,
2013-06-29 05:06:00,57.2,52.1,28.23,North,353,2.7,5.8,83,0.00,CLR,OVC,0.00,WeatherDisplay:10.37,2013-06-29 09:06:00,
2013-06-29 05:11:00,57.2,52.1,28.23,NE,37,0.0,3.5,83,0.00,CLR,OVC,0.00,WeatherDisplay:10.37,2013-06-29 09:11:00,
2013-06-29 05:16:00,57.4,52.3,28.23,NE,36,0.0,3.5,83,0.00,CLR,OVC,0.00,WeatherDisplay:10.37,2013-06-29 09:16:00,
2013-06-29 05:21:00,57.4,52.3,28.23,NNE,17,0.0,2.3,83,0.00,CLR,OVC,0.00,WeatherDisplay:10.37,2013-06-29 09:21:00,
2013-06-29 05:26:00,57.4,52.3,28.23,NW,326,0.0,4.9,83,0.00,CLR,OVC,0.00,WeatherDisplay:10.37,2013-06-29 09:26:00,
2013-06-29 05:31:00,57.4,52.3,28.23,West,274,0.0,3.5,83,0.00,CLR,OVC,0.00,WeatherDisplay:10.37,2013-06-29 09:31:00,
2013-06-29 05:36:00,57.2,52.1,28.23,NW,322,0.0,0.0,83,0.00,CLR,OVC,0.00,WeatherDisplay:10.37,2013-06-29 09:36:00,
2013-06-29 05:41:00,57.2,52.1,28.23,WNW,299,2.7,3.5,83,0.00,CLR,OVC,0.00,WeatherDisplay:10.37,2013-06-29 09:41:00,
2013-06-29 05:46:00,57.2,52.4,28.23,West,275,0.0,3.5,84,0.00,CLR,OVC,0.00,WeatherDisplay:10.37,2013-06-29 09:46:00,
2013-06-29 05:51:00,57.2,52.4,28.23,NE,37,0.0,2.3,84,0.00,CLR,OVC,0.00,WeatherDisplay:10.37,2013-06-29 09:51:00,
2013-06-29 05:56:00,57.2,52.4,28.23,WNW,288,0.0,2.3,84,0.00,CLR,OVC,0.00,WeatherDisplay:10.37,2013-06-29 09:56:00,
2013-06-29 06:01:00,57.2,52.4,28.23,NNE,32,0.0,2.3,84,0.00,CLR,OVC,0.00,WeatherDisplay:10.37,2013-06-29 10:01:00,
2013-06-29 06:06:00,57.2,52.4,28.23,ENE,68,2.7,3.5,84,0.00,CLR,OVC,0.00,WeatherDisplay:10.37,2013-06-29 10:06:00,
2013-06-29 06:11:00,57.2,52.4,28.23,SSW,196,0.0,0.0,84,0.00,CLR,OVC,0.00,WeatherDisplay:10.37,2013-06-29 10:11:00,
2013-06-29 06:16:00,57.2,52.4,28.23,NW,315,0.0,0.0,84,0.00,CLR,OVC,0.00,WeatherDisplay:10.37,2013-06-29 10:16:00,
2013-06-29 06:21:00,57.2,52.4,28.23,NNE,25,0.0,3.5,84,0.00,CLR,OVC,0.00,WeatherDisplay:10.37,2013-06-29 10:21:00,
2013-06-29 06:26:00,57.2,52.4,28.23,WSW,250,0.0,2.3,84,0.00,CLR,OVC,0.00,WeatherDisplay:10.37,2013-06-29 10:26:00,
2013-06-29 06:31:00,57.2,52.4,28.23,NW,315,0.0,3.5,84,0.00,CLR,OVC,0.00,WeatherDisplay:10.37,2013-06-29 10:31:00,
2013-06-29 06:36:00,57.2,52.4,28.23,NE,35,0.0,3.5,84,0.00,CLR,OVC,0.00,WeatherDisplay:10.37,2013-06-29 10:36:00,
2013-06-29 06:41:00,57.2,52.4,28.23,NNE,32,0.0,0.0,84,0.00,CLR,OVC,0.00,WeatherDisplay:10.37,2013-06-29 10:41:00,
2013-06-29 06:46:00,57.2,52.4,28.23,NW,315,0.0,0.0,84,0.00,CLR,OVC,0.00,WeatherDisplay:10.37,2013-06-29 10:46:00,
2013-06-29 06:51:00,57.2,52.4,28.23,NW,319,0.0,2.3,84,0.00,CLR,OVC,0.00,WeatherDisplay:10.37,2013-06-29 10:51:00,
2013-06-29 06:56:00,57.2,52.4,28.23,NW,319,0.0,0.0,84,0.00,CLR,OVC,0.00,WeatherDisplay:10.37,2013-06-29 10:56:00,
2013-06-29 07:01:00,57.2,52.4,28.23,NW,319,0.0,0.0,84,0.00,CLR,OVC,0.00,WeatherDisplay:10.37,2013-06-29 11:01:00,
2013-06-29 07:06:00,57.2,52.4,28.23,NW,319,0.0,0.0,84,0.00,CLR,OVC,0.00,WeatherDisplay:10.37,2013-06-29 11:06:00,
2013-06-29 07:11:00,57.2,52.4,28.23,NW,306,2.2,3.5,84,0.00,CLR,OVC,0.00,WeatherDisplay:10.37,2013-06-29 11:11:00,
2013-06-29 07:16:00,57.2,52.4,28.23,NW,316,0.0,0.0,84,0.00,CLR,OVC,0.00,WeatherDisplay:10.37,2013-06-29 11:16:00,
2013-06-29 07:21:00,57.2,52.4,28.23,NW,318,0.0,0.0,84,0.00,CLR,OVC,0.00,WeatherDisplay:10.37,2013-06-29 11:21:00,
2013-06-29 07:26:00,57.2,52.4,28.23,NW,318,0.0,0.0,84,0.00,CLR,OVC,0.00,WeatherDisplay:10.37,2013-06-29 11:26:00,
2013-06-29 07:31:00,57.2,52.4,28.23,NW,319,0.0,0.0,84,0.00,CLR,OVC,0.00,WeatherDisplay:10.37,2013-06-29 11:31:00,
2013-06-29 07:36:00,57.2,52.4,28.23,NW,318,0.0,2.3,84,0.00,CLR,OVC,0.00,WeatherDisplay:10.37,2013-06-29 11:36:00,
2013-06-29 07:41:00,57.2,52.4,28.23,NW,318,0.0,0.0,84,0.00,CLR,OVC,0.00,WeatherDisplay:10.37,2013-06-29 11:41:00,
2013-06-29 07:46:00,57.2,52.4,28.23,ESE,105,0.0,3.5,84,0.00,CLR,OVC,0.00,WeatherDisplay:10.37,2013-06-29 11:46:00,
2013-06-29 07:51:00,57.2,52.4,28.23,North,4,0.0,0.0,84,0.00,CLR,OVC,0.00,WeatherDisplay:10.37,2013-06-29 11:51:00,
2013-06-29 07:56:00,57.2,52.4,28.23,WSW,238,0.0,5.8,84,0.00,CLR,OVC,0.00,WeatherDisplay:10.37,2013-06-29 11:56:00,
2013-06-29 08:01:00,57.9,53.1,28.23,NW,321,2.2,8.1,84,0.00,CLR,OVC,0.00,WeatherDisplay:10.37,2013-06-29 12:01:00,
2013-06-29 08:06:00,57.9,53.1,28.23,West,262,2.2,3.5,84,0.00,CLR,OVC,0.00,WeatherDisplay:10.37,2013-06-29 12:06:00,
2013-06-29 08:11:00,57.9,53.1,28.23,NW,315,0.0,3.5,84,0.00,CLR,OVC,0.00,WeatherDisplay:10.37,2013-06-29 12:11:00,
2013-06-29 08:16:00,57.9,52.8,28.23,NW,320,4.0,5.8,83,0.00,CLR,OVC,0.00,WeatherDisplay:10.37,2013-06-29 12:16:00,
2013-06-29 08:21:00,58.1,52.6,28.23,NW,325,0.0,3.5,82,0.00,CLR,OVC,0.00,WeatherDisplay:10.37,2013-06-29 12:21:00,
2013-06-29 08:26:00,58.1,52.6,28.23,North,357,0.0,0.0,82,0.00,CLR,OVC,0.00,WeatherDisplay:10.37,2013-06-29 12:26:00,
2013-06-29 08:31:00,58.3,52.5,28.23,NNW,337,0.0,5.8,81,0.00,CLR,OVC,0.00,WeatherDisplay:10.37,2013-06-29 12:31:00,
2013-06-29 08:36:00,58.3,52.5,28.23,NW,325,0.0,0.0,81,0.00,CLR,OVC,0.00,WeatherDisplay:10.37,2013-06-29 12:36:00,
2013-06-29 08:41:00,58.3,52.1,28.23,North,350,0.0,3.5,80,0.00,CLR,OVC,0.00,WeatherDisplay:10.37,2013-06-29 12:41:00,
2013-06-29 08:46:00,58.5,52.0,28.23,NNE,33,0.0,2.3,79,0.00,CLR,OVC,0.00,WeatherDisplay:10.37,2013-06-29 12:46:00,
2013-06-29 08:51:00,58.6,52.1,28.26,NW,316,3.6,5.8,79,0.00,CLR,OVC,0.00,WeatherDisplay:10.37,2013-06-29 12:51:00,
2013-06-29 08:56:00,58.6,51.1,28.26,West,273,0.0,4.6,76,0.00,CLR,OVC,0.00,WeatherDisplay:10.37,2013-06-29 12:56:00,
2013-06-29 09:01:00,58.6,50.7,28.26,WNW,288,0.0,2.3,75,0.00,CLR,OVC,0.00,WeatherDisplay:10.37,2013-06-29 13:01:00,
2013-06-29 09:06:00,58.8,50.5,28.26,WNW,301,2.2,5.8,74,0.00,CLR,OVC,0.00,WeatherDisplay:10.37,2013-06-29 13:06:00,
2013-06-29 09:11:00,58.6,49.6,28.26,West,259,0.0,0.0,72,0.00,CLR,OVC,0.00,WeatherDisplay:10.37,2013-06-29 13:11:00,
2013-06-29 09:16:00,58.8,49.4,28.26,West,266,0.0,4.6,71,0.00,CLR,OVC,0.00,WeatherDisplay:10.37,2013-06-29 13:16:00,
2013-06-29 09:21:00,58.8,49.1,28.26,NW,322,0.0,5.8,70,0.00,CLR,OVC,0.00,WeatherDisplay:10.37,2013-06-29 13:21:00,
2013-06-29 09:26:00,59.0,48.8,28.26,NNW,345,0.0,0.0,69,0.00,CLR,OVC,0.00,WeatherDisplay:10.37,2013-06-29 13:26:00,
2013-06-29 09:31:00,59.0,48.8,28.26,WNW,300,0.0,0.0,69,0.00,CLR,OVC,0.00,WeatherDisplay:10.37,2013-06-29 13:31:00,
2013-06-29 09:36:00,59.0,48.8,28.26,NW,311,3.1,5.8,69,0.00,CLR,OVC,0.00,WeatherDisplay:10.37,2013-06-29 13:36:00,
2013-06-29 09:41:00,59.0,48.8,28.26,NW,323,0.0,2.3,69,0.00,CLR,OVC,0.00,WeatherDisplay:10.37,2013-06-29 13:41:00,
2013-06-29 09:46:00,59.0,48.8,28.26,NW,323,2.7,3.5,69,0.00,CLR,OVC,0.00,WeatherDisplay:10.37,2013-06-29 13:46:00,
2013-06-29 09:51:00,59.0,48.8,28.26,NW,319,0.0,0.0,69,0.00,CLR,OVC,0.00,WeatherDisplay:10.37,2013-06-29 13:51:00,
2013-06-29 09:56:00,59.0,48.8,28.26,WNW,299,2.7,5.8,69,0.00,CLR,OVC,0.00,WeatherDisplay:10.37,2013-06-29 13:56:00,
2013-06-29 10:01:00,59.0,48.8,28.26,NNW,341,3.1,6.9,69,0.00,CLR,OVC,0.00,WeatherDisplay:10.37,2013-06-29 14:01:00,
2013-06-29 10:06:00,59.0,48.8,28.26,WSW,258,2.2,4.9,69,0.00,CLR,OVC,0.00,WeatherDisplay:10.37,2013-06-29 14:06:00,
2013-06-29 10:11:00,59.0,48.8,28.26,NNW,330,3.1,5.8,69,0.00,CLR,OVC,0.00,WeatherDisplay:10.37,2013-06-29 14:11:00,
2013-06-29 10:16:00,59.0,48.8,28.26,NW,326,3.6,5.8,69,0.00,CLR,OVC,0.00,WeatherDisplay:10.37,2013-06-29 14:16:00,
2013-06-29 10:21:00,59.0,48.8,28.26,NNW,341,2.2,5.8,69,0.00,CLR,OVC,0.00,WeatherDisplay:10.37,2013-06-29 14:21:00,
2013-06-29 10:26:00,59.7,45.4,28.26,NNW,332,2.2,5.4,59,0.00,CLR,OVC,0.00,WeatherDisplay:10.37,2013-06-29 14:26:00,
2013-06-29 10:31:00,60.3,45.9,28.26,North,8,4.5,4.6,59,0.00,CLR,OVC,0.00,WeatherDisplay:10.37,2013-06-29 14:31:00,
2013-06-29 10:36:00,60.3,45.9,28.26,NNW,335,0.0,3.5,59,0.00,CLR,OVC,0.00,WeatherDisplay:10.37,2013-06-29 14:36:00,
2013-06-29 10:41:00,60.3,45.9,28.26,WSW,247,0.0,3.5,59,0.00,CLR,OVC,0.00,WeatherDisplay:10.37,2013-06-29 14:41:00,
2013-06-29 10:46:00,61.3,43.0,28.26,NNW,338,2.2,3.5,51,0.00,CLR,OVC,0.00,WeatherDisplay:10.37,2013-06-29 14:46:00,
2013-06-29 10:51:00,61.7,42.9,28.26,WNW,293,2.2,3.5,50,0.00,CLR,OVC,0.00,WeatherDisplay:10.37,2013-06-29 14:51:00,
2013-06-29 10:56:00,62.2,43.4,28.26,SW,214,2.2,4.6,50,0.00,CLR,OVC,0.00,WeatherDisplay:10.37,2013-06-29 14:56:00,
2013-06-29 11:01:00,62.6,41.5,28.26,West,271,3.1,3.5,46,0.00,CLR,OVC,0.00,WeatherDisplay:10.37,2013-06-29 15:01:00,
2013-06-29 11:06:00,62.8,41.1,28.26,WNW,302,0.0,0.0,45,0.00,CLR,OVC,0.00,WeatherDisplay:10.37,2013-06-29 15:06:00,
2013-06-29 11:11:00,62.8,40.5,28.26,West,278,3.6,5.8,44,0.00,CLR,OVC,0.00,WeatherDisplay:10.37,2013-06-29 15:11:00,
2013-06-29 11:16:00,63.0,39.5,28.26,North,357,2.2,3.5,42,0.00,CLR,OVC,0.00,WeatherDisplay:10.37,2013-06-29 15:16:00,
2013-06-29 11:21:00,63.3,41.0,28.26,NNW,338,0.0,3.5,44,0.00,CLR,OVC,0.00,WeatherDisplay:10.37,2013-06-29 15:21:00,
2013-06-29 11:26:00,63.9,39.1,28.26,NW,320,0.0,5.8,40,0.00,CLR,OVC,0.00,WeatherDisplay:10.37,2013-06-29 15:26:00,
2013-06-29 11:31:00,64.4,36.8,28.26,NE,47,2.7,3.5,36,0.00,CLR,OVC,0.00,WeatherDisplay:10.37,2013-06-29 15:31:00,
2013-06-29 11:36:00,64.0,36.5,28.26,NW,318,0.0,2.3,36,0.00,CLR,OVC,0.00,WeatherDisplay:10.37,2013-06-29 15:36:00,
2013-06-29 11:41:00,64.2,36.7,28.26,North,350,3.1,5.8,36,0.00,CLR,OVC,0.00,WeatherDisplay:10.37,2013-06-29 15:41:00,
2013-06-29 11:46:00,64.2,37.4,28.26,SE,127,2.7,3.5,37,0.00,CLR,OVC,0.00,WeatherDisplay:10.37,2013-06-29 15:46:00,
2013-06-29 11:51:00,64.2,37.4,28.29,NNE,15,2.2,5.8,37,0.00,CLR,OVC,0.00,WeatherDisplay:10.37,2013-06-29 15:51:00,
2013-06-29 11:56:00,63.9,38.4,28.29,NW,320,2.7,5.8,39,0.00,CLR,OVC,0.00,WeatherDisplay:10.37,2013-06-29 15:56:00,
2013-06-29 12:01:00,63.5,36.7,28.29,NNE,22,4.5,5.8,37,0.00,CLR,OVC,0.00,WeatherDisplay:10.37,2013-06-29 16:01:00,
2013-06-29 12:06:00,63.1,37.1,28.29,NW,325,0.0,2.7,38,0.00,CLR,OVC,0.00,WeatherDisplay:10.37,2013-06-29 16:06:00,
2013-06-29 12:11:00,63.1,37.8,28.29,NNE,32,3.1,4.6,39,0.00,CLR,OVC,0.00,WeatherDisplay:10.37,2013-06-29 16:11:00,
2013-06-29 12:16:00,63.5,38.1,28.29,NW,318,2.2,5.8,39,0.00,CLR,OVC,0.00,WeatherDisplay:10.37,2013-06-29 16:16:00,
2013-06-29 12:21:00,63.7,36.2,28.29,NNE,32,3.1,3.5,36,0.00,CLR,OVC,0.00,WeatherDisplay:10.37,2013-06-29 16:21:00,
2013-06-29 12:26:00,64.2,37.4,28.29,NW,317,2.2,3.5,37,0.00,CLR,OVC,0.00,WeatherDisplay:10.37,2013-06-29 16:26:00,
2013-06-29 12:31:00,64.4,36.8,28.29,NW,308,0.0,3.5,36,0.00,CLR,OVC,0.00,WeatherDisplay:10.37,2013-06-29 16:31:00,
2013-06-29 12:36:00,64.8,36.5,28.29,NW,312,0.0,3.5,35,0.00,CLR,OVC,0.00,WeatherDisplay:10.37,2013-06-29 16:36:00,
2013-06-29 16:36:00,71.2,30.4,28.32,North,0,0.0,5.8,22,0.00,CLR,OVC,0.00,WeatherDisplay:10.37,2013-06-29 20:36:00,
2013-06-29 16:41:00,71.2,30.4,28.32,North,0,0.0,5.8,22,0.00,CLR,OVC,0.00,WeatherDisplay:10.37,2013-06-29 20:41:00,
2013-06-29 16:46:00,71.2,30.4,28.32,North,0,0.0,0.0,22,0.00,CLR,OVC,0.00,WeatherDisplay:10.37,2013-06-29 20:46:00,
2013-06-29 16:51:00,71.1,29.1,28.32,NW,324,2.7,8.1,21,0.00,CLR,OVC,0.00,WeatherDisplay:10.37,2013-06-29 20:51:00,
2013-06-29 16:56:00,71.1,29.1,28.32,NW,324,2.7,5.8,21,0.00,CLR,OVC,0.00,WeatherDisplay:10.37,2013-06-29 20:56:00,
2013-06-29 17:01:00,71.1,29.1,28.32,NW,324,2.7,5.8,21,0.00,CLR,OVC,0.00,WeatherDisplay:10.37,2013-06-29 21:01:00,
2013-06-29 17:06:00,71.1,29.1,28.32,NW,324,2.7,5.8,21,0.00,CLR,OVC,0.00,WeatherDisplay:10.37,2013-06-29 21:06:00,
2013-06-29 17:11:00,71.1,29.1,28.32,NW,324,2.7,5.8,21,0.00,CLR,OVC,0.00,WeatherDisplay:10.37,2013-06-29 21:11:00,
2013-06-29 17:16:00,71.1,29.1,28.32,NW,324,2.7,5.8,21,0.00,CLR,OVC,0.00,WeatherDisplay:10.37,2013-06-29 21:16:00,
2013-06-29 17:21:00,71.1,29.1,28.32,NW,324,2.7,5.8,21,0.00,CLR,OVC,0.00,WeatherDisplay:10.37,2013-06-29 21:21:00,
2013-06-29 17:26:00,71.1,29.1,28.32,NW,324,2.7,5.8,21,0.00,CLR,OVC,0.00,WeatherDisplay:10.37,2013-06-29 21:26:00,
2013-06-29 17:31:00,71.1,29.1,28.32,NW,324,2.7,5.8,21,0.00,CLR,OVC,0.00,WeatherDisplay:10.37,2013-06-29 21:31:00,
2013-06-29 17:36:00,71.1,29.1,28.32,NW,324,2.7,5.8,21,0.00,CLR,OVC,0.00,WeatherDisplay:10.37,2013-06-29 21:36:00,
2013-06-29 17:41:00,71.1,29.1,28.32,NW,324,2.7,5.8,21,0.00,CLR,OVC,0.00,WeatherDisplay:10.37,2013-06-29 21:41:00,
2013-06-29 17:46:00,71.1,29.1,28.32,NW,324,2.7,5.8,21,0.00,CLR,OVC,0.00,WeatherDisplay:10.37,2013-06-29 21:46:00,
2013-06-29 17:51:00,71.1,29.1,28.32,NW,324,2.7,5.8,21,0.00,CLR,OVC,0.00,WeatherDisplay:10.37,2013-06-29 21:51:00,
2013-06-29 18:05:00,71.1,29.1,28.35,North,0,0.0,5.8,21,0.00,CLR,OVC,0.00,WeatherDisplay:10.37,2013-06-29 22:05:00,
2013-06-29 18:10:00,71.1,29.1,28.35,North,0,0.0,0.0,21,0.00,CLR,OVC,0.00,WeatherDisplay:10.37,2013-06-29 22:10:00,
2013-06-29 18:15:00,71.1,29.1,28.35,North,0,0.0,0.0,21,0.00,CLR,OVC,0.00,WeatherDisplay:10.37,2013-06-29 22:15:00,
2013-06-29 18:20:00,68.5,22.0,28.35,WSW,256,2.7,2.7,17,0.00,CLR,OVC,0.00,WeatherDisplay:10.37,2013-06-29 22:20:00,
2013-06-29 18:25:00,68.5,22.0,28.35,ESE,109,4.9,4.9,17,0.00,CLR,OVC,0.00,WeatherDisplay:10.37,2013-06-29 22:25:00,
2013-06-29 18:30:00,68.5,22.0,28.35,SSE,159,0.0,3.5,17,0.00,CLR,OVC,0.00,WeatherDisplay:10.37,2013-06-29 22:30:00,
2013-06-29 18:35:00,68.5,22.0,28.35,NNW,342,3.1,4.6,17,0.00,CLR,OVC,0.00,WeatherDisplay:10.37,2013-06-29 22:35:00,
2013-06-29 18:40:00,68.5,22.0,28.35,NNE,14,3.1,5.8,17,0.00,CLR,OVC,0.00,WeatherDisplay:10.37,2013-06-29 22:40:00,
2013-06-29 18:45:00,67.3,20.9,28.35,NNW,338,4.0,4.0,17,0.00,CLR,OVC,0.00,WeatherDisplay:10.37,2013-06-29 22:45:00,
2013-06-29 18:50:00,67.3,20.9,28.35,East,97,4.0,8.1,17,0.00,CLR,OVC,0.00,WeatherDisplay:10.37,2013-06-29 22:50:00,
2013-06-29 18:55:00,66.7,20.5,28.35,NNE,21,5.8,5.8,17,0.00,CLR,OVC,0.00,WeatherDisplay:10.37,2013-06-29 22:55:00,
2013-06-29 19:00:00,66.6,24.2,28.35,WNW,300,0.0,5.4,20,0.00,CLR,OVC,0.00,WeatherDisplay:10.37,2013-06-29 23:00:00,
2013-06-29 19:05:00,66.4,20.2,28.35,NNE,21,2.2,5.8,17,0.00,CLR,OVC,0.00,WeatherDisplay:10.37,2013-06-29 23:05:00,
2013-06-29 19:10:00,66.4,24.1,28.35,NNW,330,4.0,5.8,20,0.00,CLR,OVC,0.00,WeatherDisplay:10.37,2013-06-29 23:10:00,
2013-06-29 19:15:00,66.6,24.2,28.35,North,350,3.6,3.6,20,0.00,CLR,OVC,0.00,WeatherDisplay:10.37,2013-06-29 23:15:00,
2013-06-29 19:20:00,66.6,20.3,28.35,NE,53,3.6,5.8,17,0.00,CLR,OVC,0.00,WeatherDisplay:10.37,2013-06-29 23:20:00,
2013-06-29 19:25:00,66.6,20.3,28.35,SE,133,6.7,8.1,17,0.00,CLR,OVC,0.00,WeatherDisplay:10.37,2013-06-29 23:25:00,
2013-06-29 19:30:00,66.4,20.2,28.35,North,353,6.3,9.2,17,0.00,CLR,OVC,0.00,WeatherDisplay:10.37,2013-06-29 23:30:00,
2013-06-29 19:35:00,66.2,20.0,28.35,NE,34,2.2,6.9,17,0.00,CLR,OVC,0.00,WeatherDisplay:10.37,2013-06-29 23:35:00,
2013-06-29 19:40:00,66.2,20.0,28.35,NNE,32,2.7,3.5,17,0.00,CLR,OVC,0.00,WeatherDisplay:10.37,2013-06-29 23:40:00,
2013-06-29 19:45:00,66.0,19.9,28.35,NW,321,2.7,8.1,17,0.00,CLR,OVC,0.00,WeatherDisplay:10.37,2013-06-29 23:45:00,
2013-06-29 19:50:00,66.0,19.9,28.35,ESE,121,4.0,6.9,17,0.00,CLR,OVC,0.00,WeatherDisplay:10.37,2013-06-29 23:50:00,
2013-06-29 19:55:00,65.8,19.8,28.35,NE,49,4.5,5.8,17,0.00,CLR,OVC,0.00,WeatherDisplay:10.37,2013-06-29 23:55:00,
2013-06-29 20:00:00,65.8,19.8,28.35,SSW,206,2.7,3.5,17,0.00,CLR,OVC,0.00,WeatherDisplay:10.37,2013-06-30 00:00:00,
2013-06-29 20:05:00,65.7,19.6,28.35,NE,35,3.1,5.8,17,0.00,CLR,OVC,0.00,WeatherDisplay:10.37,2013-06-30 00:05:00,
2013-06-29 20:10:00,65.5,19.5,28.35,WNW,284,2.7,3.5,17,0.00,CLR,OVC,0.00,WeatherDisplay:10.37,2013-06-30 00:10:00,
2013-06-29 20:15:00,65.5,19.5,28.35,ESE,113,2.2,5.8,17,0.00,CLR,OVC,0.00,WeatherDisplay:10.37,2013-06-30 00:15:00,
2013-06-29 20:20:00,64.2,19.8,28.35,ESE,109,2.2,3.5,18,0.00,CLR,OVC,0.00,WeatherDisplay:10.37,2013-06-30 00:20:00,
2013-06-29 20:25:00,63.1,18.9,28.35,North,0,2.7,2.7,18,0.00,CLR,OVC,0.00,WeatherDisplay:10.37,2013-06-30 00:25:00,
2013-06-29 20:30:00,62.6,18.4,28.35,NE,55,0.0,0.0,18,0.00,CLR,OVC,0.00,WeatherDisplay:10.37,2013-06-30 00:30:00,
2013-06-29 20:35:00,62.2,18.1,28.35,ENE,71,3.6,8.1,18,0.00,CLR,OVC,0.00,WeatherDisplay:10.37,2013-06-30 00:35:00,
2013-06-29 20:40:00,61.5,18.8,28.35,NNW,327,2.2,2.3,19,0.00,CLR,OVC,0.00,WeatherDisplay:10.37,2013-06-30 00:40:00,
2013-06-29 20:45:00,61.5,18.8,28.35,NNW,332,2.7,4.6,19,0.00,CLR,OVC,0.00,WeatherDisplay:10.37,2013-06-30 00:45:00,
2013-06-29 20:50:00,60.4,17.9,28.35,NW,316,0.0,2.3,19,0.00,CLR,OVC,0.00,WeatherDisplay:10.37,2013-06-30 00:50:00,
2013-06-29 20:55:00,60.3,17.8,28.35,WNW,293,0.0,0.0,19,0.00,CLR,OVC,0.00,WeatherDisplay:10.37,2013-06-30 00:55:00,
2013-06-29 21:00:00,59.9,17.5,28.35,WNW,293,0.0,0.0,19,0.00,CLR,OVC,0.00,WeatherDisplay:10.37,2013-06-30 01:00:00,
2013-06-29 21:05:00,59.2,16.9,28.35,WNW,293,0.0,0.0,19,0.00,CLR,OVC,0.00,WeatherDisplay:10.37,2013-06-30 01:05:00,
2013-06-29 21:10:00,58.6,16.4,28.35,WNW,293,0.0,0.0,19,0.00,CLR,OVC,0.00,WeatherDisplay:10.37,2013-06-30 01:10:00,
2013-06-29 21:15:00,58.6,16.4,28.35,WNW,293,0.0,0.0,19,0.00,CLR,OVC,0.00,WeatherDisplay:10.37,2013-06-30 01:15:00,
2013-06-29 21:20:00,58.6,16.4,28.38,WNW,293,0.0,0.0,19,0.00,CLR,OVC,0.00,WeatherDisplay:10.37,2013-06-30 01:20:00,
2013-06-29 21:25:00,58.6,16.4,28.38,WNW,293,0.0,0.0,19,0.00,CLR,OVC,0.00,WeatherDisplay:10.37,2013-06-30 01:25:00,
2013-06-29 21:30:00,57.0,18.5,28.38,WNW,293,0.0,0.0,22,0.00,CLR,OVC,0.00,WeatherDisplay:10.37,2013-06-30 01:30:00,
2013-06-29 21:35:00,57.0,18.5,28.35,WNW,293,0.0,0.0,22,0.00,CLR,OVC,0.00,WeatherDisplay:10.37,2013-06-30 01:35:00,
2013-06-29 21:40:00,57.0,18.5,28.35,WNW,293,0.0,0.0,22,0.00,CLR,OVC,0.00,WeatherDisplay:10.37,2013-06-30 01:40:00,
2013-06-29 21:45:00,55.0,19.8,28.35,NW,318,0.0,0.0,25,0.00,CLR,OVC,0.00,WeatherDisplay:10.37,2013-06-30 01:45:00,
2013-06-29 21:50:00,54.7,19.5,28.38,NW,318,0.0,0.0,25,0.00,CLR,OVC,0.00,WeatherDisplay:10.37,2013-06-30 01:50:00,
2013-06-29 21:55:00,54.1,20.8,28.38,NW,318,0.0,2.3,27,0.00,CLR,OVC,0.00,WeatherDisplay:10.37,2013-06-30 01:55:00,
2013-06-29 22:00:00,53.6,21.2,28.38,NW,318,0.0,0.0,28,0.00,CLR,OVC,0.00,WeatherDisplay:10.37,2013-06-30 02:00:00,
2013-06-29 22:05:00,53.2,21.8,28.38,NW,318,0.0,0.0,29,0.00,CLR,OVC,0.00,WeatherDisplay:10.37,2013-06-30 02:05:00,
2013-06-29 22:10:00,53.2,23.3,28.38,NW,318,0.0,2.7,31,0.00,CLR,OVC,0.00,WeatherDisplay:10.37,2013-06-30 02:10:00,
2013-06-29 22:15:00,52.9,24.5,28.38,NNW,331,0.0,2.3,33,0.00,CLR,OVC,0.00,WeatherDisplay:10.37,2013-06-30 02:15:00,
2013-06-29 22:20:00,52.5,25.6,28.38,NNW,331,0.0,4.6,35,0.00,CLR,OVC,0.00,WeatherDisplay:10.37,2013-06-30 02:20:00,
2013-06-29 22:25:00,52.2,26.0,28.38,NNW,331,0.0,0.0,36,0.00,CLR,OVC,0.00,WeatherDisplay:10.37,2013-06-30 02:25:00,
2013-06-29 22:30:00,52.2,26.6,28.38,NNW,332,0.0,2.3,37,0.00,CLR,OVC,0.00,WeatherDisplay:10.37,2013-06-30 02:30:00,
2013-06-29 22:35:00,52.2,26.6,28.38,NNW,332,0.0,0.0,37,0.00,CLR,OVC,0.00,WeatherDisplay:10.37,2013-06-30 02:35:00,
2013-06-29 22:40:00,51.6,25.5,28.38,NNW,332,0.0,0.0,36,0.00,CLR,OVC,0.00,WeatherDisplay:10.37,2013-06-30 02:40:00,
2013-06-29 22:45:00,51.1,25.0,28.38,NW,323,0.0,3.5,36,0.00,CLR,OVC,0.00,WeatherDisplay:10.37,2013-06-30 02:45:00,
2013-06-29 22:50:00,50.7,25.4,28.38,NW,323,0.0,0.0,37,0.00,CLR,OVC,0.00,WeatherDisplay:10.37,2013-06-30 02:50:00,
2013-06-29 22:55:00,50.4,25.0,28.38,NW,323,0.0,0.0,37,0.00,CLR,OVC,0.00,WeatherDisplay:10.37,2013-06-30 02:55:00,
2013-06-29 23:00:00,50.0,25.4,28.38,NW,323,0.0,0.0,38,0.00,CLR,OVC,0.00,WeatherDisplay:10.37,2013-06-30 03:00:00,
2013-06-29 23:05:00,50.0,25.4,28.41,NW,323,0.0,0.0,38,0.00,CLR,OVC,0.00,WeatherDisplay:10.37,2013-06-30 03:05:00,
2013-06-29 23:10:00,49.6,25.0,28.41,NW,322,0.0,0.0,38,0.00,CLR,OVC,0.00,WeatherDisplay:10.37,2013-06-30 03:10:00,
2013-06-29 23:15:00,49.3,24.7,28.41,NW,322,0.0,0.0,38,0.00,CLR,OVC,0.00,WeatherDisplay:10.37,2013-06-30 03:15:00,
2013-06-29 23:20:00,48.9,24.4,28.41,NW,322,0.0,0.0,38,0.00,CLR,OVC,0.00,WeatherDisplay:10.37,2013-06-30 03:20:00,
2013-06-29 23:25:00,48.6,24.1,28.41,NW,322,0.0,0.0,38,0.00,CLR,OVC,0.00,WeatherDisplay:10.37,2013-06-30 03:25:00,
2013-06-29 23:30:00,48.2,24.4,28.41,NW,323,0.0,0.0,39,0.00,CLR,OVC,0.00,WeatherDisplay:10.37,2013-06-30 03:30:00,
2013-06-29 23:35:00,48.0,24.2,28.41,NW,323,0.0,0.0,39,0.00,CLR,OVC,0.00,WeatherDisplay:10.37,2013-06-30 03:35:00,
2013-06-29 23:40:00,47.7,24.5,28.41,NW,323,0.0,0.0,40,0.00,CLR,OVC,0.00,WeatherDisplay:10.37,2013-06-30 03:40:00,
2013-06-29 23:45:00,47.5,24.3,28.41,NW,323,0.0,0.0,40,0.00,CLR,OVC,0.00,WeatherDisplay:10.37,2013-06-30 03:45:00,
2013-06-29 23:50:00,47.3,24.2,28.41,NW,323,0.0,0.0,40,0.00,CLR,OVC,0.00,WeatherDisplay:10.37,2013-06-30 03:50:00,
2013-06-29 23:55:00,47.1,24.6,28.41,NW,323,0.0,0.0,41,0.00,CLR,OVC,0.00,WeatherDisplay:10.37,2013-06-30 03:55:00,